RH
40 20 21 22 24 26 25 20 33 30 34 31 38 48 60 61 62 88 66 67 77 84 84 86 93 92 92 90 88 88 88 87 86 88 88 87 84 83 82 81 84 82 75 75 78 80 80 81 81
37 18 23 19 25 28 36 29 29 24 24 31 36 44 52 61 50 57 69 64 68 75 86 89 94 93 93 93 92 90 88 88 88 88 88 86 83 81 79 80 85 83 75 73 77 80 79 82 81
31 20 19 20 24 27 43 28 26 24 21 29 39 39 47 57 46 50 58 62 67 81 85 87 92 92 92 93 93 93 92 92 92 90 87 85 82 79 79 85 86 80 78 78 80 80 80 81 84
24 18 13 18 19 20 31 26 23 23 20 31 36 53 43 41 42 42 59 63 78 90 93 90 90 90 91 91 92 92 92 93 92 91 88 84 83 81 86 85 83 79 77 79 81 82 82 84 84
24 20 19 20 27 24 22 21 22 23 23 40 42 56 53 38 36 39 49 61 76 88 89 87 89 88 86 84 85 91 93 93 93 92 90 86 84 85 86 86 85 82 79 78 80 82 83 86 88
20 18 22 24 26 24 22 18 21 22 18 40 47 52 55 40 39 38 49 60 64 73 82 79 86 88 87 86 87 89 89 90 91 90 89 85 87 88 87 87 86 86 86 86 86 86 85 85 85
22 22 23 19 27 25 20 15 18 17 17 25 41 59 54 48 43 35 39 48 56 63 76 84 86 83 87 88 87 88 87 88 87 87 88 88 89 90 90 88 85 85 85 85 83 82 82 81 81
16 17 18 16 22 22 15 11 15 16 16 17 35 53 63 51 41 34 36 44 48 55 64 77 84 85 91 92 89 88 86 85 84 84 86 86 88 89 88 87 87 84 84 82 80 80 80 80 82
12 17 16 14 16 15 12 10 11 14 17 29 30 42 46 42 36 36 40 42 44 47 57 67 70 78 84 89 84 87 86 85 84 84 85 87 88 89 88 88 85 82 81 79 78 77 78 79 80
13 16 12 10 11 10 11 11 13 16 19 37 47 42 41 40 38 38 39 43 46 51 57 58 65 74 77 54 86 88 82 88 87 84 86 85 88 87 75 83 83 81 81 81 81 81 81 82 83
11 12 9 10 8 8 11 12 12 16 22 31 50 46 43 43 40 39 38 41 47 45 55 64 61 59 60 63 86 89 86 91 91 84 76 79 72 78 83 94 90 95 88 92 87 89 90 83 81
8 8 8 10 9 7 8 8 10 14 17 19 39 39 42 42 39 38 38 40 46 49 53 62 63 58 59 63 65 70 73 77 81 72 68 75 82 80 79 91 91 95 95 95 94 94 86 83 70
8 10 8 9 12 11 9 10 11 13 13 17 31 33 38 38 39 36 34 34 42 49 54 61 61 64 56 57 68 64 69 74 69 76 72 72 75 78 77 73 74 72 70 70 71 68 66 67 64
10 9 10 11 12 14 15 15 13 13 11 18 21 34 34 34 34 34 34 30 37 42 50 60 61 64 56 65 59 65 66 70 66 77 71 70 77 75 74 74 72 70 71 71 70 67 66 67 68
13 15 14 14 14 15 15 20 14 12 11 15 18 25 29 29 31 33 33 34 37 39 50 56 64 58 52 57 58 61 71 53 63 69 65 66 66 70 72 75 77 76 77 72 72 70 75 77 70
14 18 21 16 16 16 16 24 14 13 12 14 16 15 22 29 29 31 31 31 34 38 46 55 51 73 73 62 59 54 59 62 58 62 67 64 62 62 70 74 74 76 75 74 77 79 77 77 79
21 24 23 20 14 18 19 21 17 16 15 18 18 19 19 33 33 34 36 41 49 45 44 67 62 76 89 85 78 63 56 53 56 65 68 64 62 66 69 68 72 74 77 79 79 79 84 84 82
22 22 20 22 18 16 17 23 20 17 18 22 25 32 42 44 45 44 45 46 54 60 58 70 62 76 83 84 75 74 64 61 62 63 61 54 60 60 68 70 71 74 73 76 80 80 78 82 84
16 18 18 21 17 19 20 22 21 23 24 34 38 40 43 46 45 48 50 51 50 61 54 50 49 71 72 67 60 62 60 57 58 60 54 51 59 62 64 68 68 69 72 73 73 79 82 75 82
16 20 28 21 18 19 22 25 24 23 28 32 36 40 44 48 48 52 60 69 72 67 56 55 50 53 55 58 58 60 65 58 58 64 61 62 62 62 57 68 69 69 76 77 79 78 81 82 82
26 31 30 27 22 24 26 29 27 25 26 26 32 36 40 48 52 51 55 66 62 62 54 50 52 52 58 59 63 64 65 66 63 61 65 60 60 59 60 64 70 72 76 81 81 80 87 94 88
34 29 28 27 31 38 27 38 33 28 30 32 36 39 44 45 48 51 59 64 63 63 57 53 49 51 54 56 61 64 72 69 66 65 64 62 62 63 59 61 67 74 79 82 88 84 94 94 97
34 31 32 33 38 43 35 37 33 28 41 42 44 43 47 47 50 53 57 56 59 59 59 56 53 52 54 57 60 66 65 65 64 63 64 67 66 62 60 60 71 86 89 91 94 94 91 81 83
26 32 35 38 43 62 45 41 40 32 39 42 42 43 43 45 46 48 53 56 61 64 62 57 53 52 56 59 62 64 66 66 68 68 74 74 71 68 71 78 89 90 92 94 96 94 87 93 89
33 44 71 68 78 68 50 52 61 43 35 38 44 47 47 47 48 47 46 52 56 58 61 53 56 52 52 58 67 69 69 70 70 74 76 73 72 78 91 89 91 94 93 93 92 90 93 94 95
37 40 82 74 86 70 37 55 52 38 38 41 42 46 44 45 41 46 48 52 50 51 54 52 50 49 53 64 64 65 67 72 72 73 72 72 75 91 90 89 90 90 90 92 93 95 96 95 96
34 53 37 49 72 82 56 47 41 39 43 35 36 37 46 44 42 46 48 49 49 48 53 56 51 51 53 54 53 53 57 60 63 68 76 84 81 68 86 88 89 88 89 90 92 96 94 92 95
36 30 54 71 75 74 52 55 65 49 43 39 39 41 41 43 44 44 46 49 52 52 55 54 52 48 44 45 51 51 56 58 70 76 76 75 75 74 76 83 85 81 83 86 91 92 87 90 96
40 45 44 45 67 80 87 58 41 42 44 41 40 40 45 46 43 44 47 52 50 49 49 53 44 42 44 46 50 57 59 64 69 70 74 77 79 75 77 80 75 78 83 81 83 84 84 85 85
35 41 42 81 65 78 87 63 35 50 48 46 44 39 44 47 44 47 49 50 52 52 49 45 43 43 45 46 51 54 57 69 77 79 83 85 88 86 82 78 78 76 80 78 76 74 68 68 67
Wind_Speed
5 6 1 3 3 3 4 3 9 10 9 17 18 17 18 8 5 8 9 17 18 12 10 11 13 13 13 14 14 14 14 13 12 12 13 13 13 12 13 12 10 10 11 11 10 9 8 6 7
4 4 3 2 3 2 4 10 13 9 10 21 20 19 20 19 14 11 11 18 17 14 10 10 13 14 14 14 14 13 13 13 13 13 13 12 12 12 12 11 10 10 8 8 9 9 7 7 6
2 2 2 3 3 4 5 6 6 4 7 11 7 12 7 5 5 8 19 20 18 13 10 10 13 14 14 14 14 13 13 13 12 12 12 13 12 12 11 11 11 11 10 9 8 7 7 7 6
4 3 4 2 9 4 10 8 7 6 12 18 13 12 8 6 6 8 20 20 16 9 8 10 13 13 14 13 13 13 13 13 12 12 12 12 12 12 11 11 10 10 10 8 7 7 7 7 7
2 1 2 3 8 5 6 9 6 7 9 17 17 10 9 11 12 12 19 17 17 9 7 8 12 13 13 13 13 12 12 12 11 11 11 11 12 11 12 11 11 10 10 8 8 6 6 6 6
4 2 3 1 3 7 5 6 6 11 12 20 20 15 7 10 8 9 17 15 15 11 7 9 12 12 11 12 11 11 11 11 10 10 10 10 11 10 12 11 11 10 9 8 7 6 6 6 7
4 3 5 8 3 9 5 9 12 14 10 6 14 9 8 10 9 10 15 16 14 11 10 7 7 9 12 12 11 10 10 10 9 9 9 8 9 9 9 8 9 9 8 6 5 2 2 4 6
4 2 6 6 8 3 3 9 8 12 5 7 11 7 9 7 9 10 14 14 14 12 11 10 8 7 7 7 11 10 10 10 9 9 9 8 9 9 10 9 7 8 8 6 5 3 4 5 6
4 3 10 17 8 5 3 8 6 6 10 8 5 13 13 11 10 8 7 7 9 9 10 8 9 7 7 6 8 11 12 11 9 9 10 8 4 6 8 8 9 7 6 6 6 6 6 6 6
7 4 5 6 9 7 4 11 5 7 9 11 12 16 11 10 10 10 7 7 7 8 11 9 9 9 8 7 7 6 6 5 5 5 6 4 6 7 7 6 10 9 6 6 8 8 8 6 4
3 5 5 7 8 11 8 6 7 8 7 15 19 14 10 7 8 9 8 10 11 10 6 8 7 6 6 5 3 3 3 3 3 6 7 6 3 2 2 3 3 3 5 4 5 5 4 5 4
7 8 8 5 9 8 8 6 5 10 8 12 18 18 11 10 9 9 9 9 10 9 11 8 8 6 4 3 4 4 4 4 4 4 5 4 3 2 3 3 4 4 4 5 5 3 5 5 7
10 5 7 5 10 8 6 4 4 8 10 13 17 16 15 13 12 10 10 11 10 11 11 10 9 8 4 4 3 3 3 4 5 4 5 4 3 2 2 2 1 2 2 2 1 2 3 4 5
6 8 8 3 6 2 1 2 5 4 9 10 14 15 14 16 13 9 6 12 12 12 14 11 10 9 8 4 5 3 3 3 3 4 5 5 4 2 2 0 2 3 2 2 2 3 5 5 5
8 7 6 5 7 4 3 2 6 8 9 10 11 11 11 15 11 11 8 10 12 12 13 14 12 10 10 10 7 4 4 3 4 4 6 7 5 4 3 1 3 3 3 4 4 5 4 4 5
5 6 5 6 8 6 8 6 7 9 9 8 9 8 9 10 12 10 10 10 9 11 14 11 9 6 1 3 4 5 4 2 1 3 5 6 5 3 3 2 2 3 3 3 3 3 5 5 5
2 4 6 4 9 5 5 6 7 7 7 3 5 7 4 8 15 10 10 12 10 12 14 11 6 7 7 8 1 4 5 2 1 2 4 6 6 5 4 0 3 5 4 5 4 4 2 4 5
4 3 6 9 3 3 4 3 5 5 4 4 7 14 15 18 15 15 13 13 14 14 15 10 10 8 3 3 5 5 4 4 3 4 4 4 3 3 4 3 4 4 4 4 4 4 4 3 5
3 4 9 5 5 3 4 4 6 6 10 18 15 15 16 15 12 13 12 13 14 13 12 9 13 7 6 4 4 2 2 2 2 2 4 3 5 6 5 3 4 5 4 4 5 4 5 6 5
6 6 5 4 5 5 3 1 7 9 7 12 15 13 14 12 13 12 12 11 10 7 7 8 10 9 7 4 2 3 2 2 3 4 5 7 7 7 7 6 5 6 5 7 5 5 4 2 4
9 6 6 4 7 3 3 2 6 6 12 13 10 10 11 13 12 11 10 8 9 9 8 8 8 8 7 7 5 5 4 4 5 5 4 4 7 6 7 7 6 6 5 4 4 4 6 3 3
5 7 6 6 5 3 3 4 4 8 8 11 11 9 9 12 11 10 8 8 8 7 8 7 5 6 5 6 5 4 2 2 2 2 3 5 7 7 7 7 6 5 4 6 5 5 3 4 3
2 3 4 4 4 3 8 1 6 12 11 10 9 11 9 8 10 9 8 8 6 6 4 4 7 5 3 3 4 2 2 1 2 3 6 6 6 7 6 8 10 8 5 4 5 4 5 4 2
5 4 6 5 3 3 6 4 2 9 12 9 9 10 10 9 9 8 7 7 6 4 4 4 6 7 8 8 8 7 6 5 4 3 3 3 3 4 7 8 5 4 4 5 3 4 4 2 1
3 5 4 5 5 4 5 9 6 12 12 14 13 9 9 8 7 7 9 7 5 6 6 5 7 6 6 8 8 6 5 5 4 4 2 3 2 3 4 4 5 4 4 5 5 3 4 4 3
4 3 5 0 1 5 8 4 1 10 12 9 8 8 8 8 5 6 7 7 7 7 6 5 4 4 6 6 6 6 6 3 3 2 0 1 2 3 4 5 4 3 4 5 5 3 2 3 3
6 5 2 3 5 4 2 4 5 9 7 11 10 8 7 8 6 8 8 7 7 5 4 5 6 6 7 7 5 6 6 6 4 6 6 4 4 2 2 3 2 2 3 4 5 3 4 4 4
5 2 6 4 2 2 4 3 3 3 7 7 6 6 4 1 3 5 4 5 5 5 4 6 7 7 6 6 5 4 4 6 6 5 5 4 3 2 2 3 2 3 5 6 5 5 6 5 5
5 3 4 2 6 5 1 3 4 9 11 7 8 6 5 4 4 5 6 6 5 5 6 7 7 7 6 5 4 6 6 4 4 4 4 5 5 5 2 3 4 5 5 6 6 6 7 6 5
1 3 4 6 5 1 5 6 7 8 10 7 4 5 3 4 4 7 7 7 8 7 7 5 5 6 4 3 4 5 4 4 4 5 4 5 5 6 6 4 5 7 6 7 7 6 5 5 4
Wind_Direction
350 302 187 347 45 87 297 262 83 45 44 66 71 75 82 55 70 131 132 122 114 117 112 100 96 89 85 84 82 82 87 92 94 93 91 89 88 84 78 71 60 58 59 57 61 56 56 53 49
6 322 49 271 97 75 328 80 73 113 122 83 83 89 68 73 81 111 119 120 115 113 99 94 94 91 88 87 85 86 91 89 87 91 89 87 79 69 61 53 43 39 37 48 48 44 44 42 36
337 166 87 138 187 180 137 83 113 88 104 106 84 60 76 91 57 97 108 111 97 95 100 101 96 92 89 85 83 82 82 81 81 83 83 78 74 70 67 65 58 56 49 63 62 49 46 37 23
7 16 340 66 275 240 131 141 124 62 61 79 104 68 37 110 106 119 115 107 100 99 99 101 98 95 93 93 93 92 88 83 81 79 81 82 80 82 81 71 66 62 57 52 51 33 28 18 6
54 327 349 302 87 45 118 142 121 96 87 98 92 88 85 83 105 110 110 109 108 106 102 102 99 97 101 103 99 95 95 96 93 91 89 89 86 84 79 73 68 63 60 55 53 38 26 18 6
11 84 1 246 194 109 62 57 100 97 91 102 101 107 115 123 100 114 115 112 119 120 124 111 110 111 110 104 101 100 96 94 92 93 93 94 94 91 85 80 79 75 71 63 55 43 25 12 359
158 70 250 271 171 79 76 48 59 84 72 67 139 115 134 115 132 117 124 122 125 134 125 122 130 132 127 124 115 115 114 113 115 116 113 118 113 111 114 126 126 125 123 129 119 83 0 335 326
154 130 289 293 104 94 68 69 84 79 58 139 146 133 143 160 130 116 125 133 141 144 148 157 151 148 146 136 137 135 135 136 144 140 141 148 132 146 155 159 148 151 166 157 159 192 239 277 305
144 214 258 263 121 161 80 79 47 73 67 50 54 120 141 140 121 105 113 124 140 153 150 165 157 163 150 148 156 153 156 159 174 167 174 162 164 188 186 186 175 188 184 186 205 227 257 270 291
157 155 223 93 119 133 104 99 121 97 90 80 84 105 124 124 125 135 142 147 123 136 148 162 156 171 159 169 170 158 176 176 185 179 190 192 191 197 196 168 181 210 210 224 246 249 248 264 249
1 110 46 45 130 111 111 126 166 138 142 146 140 139 136 135 137 156 172 165 160 163 142 136 132 124 150 162 175 151 184 199 189 206 189 185 167 166 163 150 207 230 235 239 246 255 250 241 236
67 71 82 25 61 85 136 170 81 111 187 154 145 148 143 150 160 189 189 174 166 151 147 141 131 114 98 96 142 146 179 181 178 178 127 103 69 108 106 159 223 232 250 233 257 250 248 247 266
93 92 78 65 67 72 99 144 130 112 99 141 140 145 156 164 182 205 193 178 170 140 152 155 142 147 165 114 121 101 102 141 153 143 132 115 99 89 67 22 0 300 295 266 258 273 305 303 291
131 119 124 152 83 80 131 165 82 193 122 130 140 162 172 176 182 196 198 165 163 149 159 158 154 159 155 143 135 160 138 155 103 138 142 132 116 140 89 329 322 315 327 301 309 299 290 276 275
130 114 139 155 166 172 193 332 162 193 148 152 158 171 178 184 171 180 177 154 152 162 158 170 165 162 162 156 163 154 171 150 130 175 151 144 138 145 123 34 349 318 316 321 320 309 297 285 273
170 121 141 229 175 202 120 250 231 168 139 159 189 190 176 196 173 166 163 155 164 153 168 165 154 97 36 150 178 121 126 117 189 171 171 157 146 130 69 54 321 291 306 291 286 285 286 278 271
300 218 160 172 176 160 137 318 128 138 130 189 242 205 177 59 37 38 62 73 75 81 82 58 90 90 83 262 304 102 137 165 242 118 91 102 94 108 130 147 326 338 327 325 319 326 328 306 307
294 245 169 153 170 79 323 146 106 138 156 226 34 72 71 69 53 51 60 62 61 65 69 68 71 71 41 40 44 28 30 14 37 109 104 101 114 125 72 23 357 1 355 342 350 346 329 310 297
330 16 83 90 73 79 320 111 104 34 68 78 81 91 84 76 69 57 48 56 60 51 70 67 67 53 47 38 66 31 44 358 50 95 128 62 59 47 36 12 5 347 353 324 337 336 347 334 325
360 30 30 95 99 86 330 63 113 81 87 111 109 98 97 93 75 60 47 44 50 63 74 68 61 50 40 27 22 60 357 345 46 25 39 41 32 21 22 25 13 12 2 357 357 348 315 288 346
21 81 30 31 347 335 308 103 110 97 90 85 89 105 100 102 93 79 63 50 50 46 53 67 72 65 51 45 28 12 17 26 15 10 35 21 41 38 42 38 32 14 19 357 333 324 0 325 356
41 21 14 344 14 254 140 241 189 146 112 94 83 82 96 103 100 101 90 74 65 49 47 44 90 110 86 74 61 57 74 18 325 353 5 27 29 34 35 32 21 12 6 13 13 36 36 46 25
146 348 272 266 279 310 299 130 228 140 122 114 108 99 100 112 115 114 119 117 111 101 83 18 23 60 82 100 114 97 54 339 343 8 21 23 23 30 29 19 25 38 40 32 45 21 27 34 33
275 284 262 218 174 17 303 198 88 162 149 133 124 117 112 110 119 139 139 139 151 158 122 76 47 38 51 47 32 40 40 17 31 2 30 20 17 25 32 59 55 43 35 24 30 42 62 43 56
6 30 355 25 10 218 320 70 352 355 145 135 125 120 121 118 116 133 131 142 128 73 71 61 61 41 47 53 68 59 38 30 22 16 37 17 338 62 63 74 49 32 15 7 1 359 17 357 357
302 82 133 124 53 294 324 64 112 68 61 85 98 121 132 131 146 131 128 120 114 112 101 88 78 50 60 75 53 35 26 19 6 24 268 350 41 115 91 72 64 42 359 341 323 317 334 348 326
321 44 160 96 7 44 228 93 56 110 107 117 150 170 162 162 153 140 141 143 143 131 104 102 88 85 70 67 49 45 25 24 345 354 41 60 35 86 131 137 181 195 263 280 289 277 268 256 260
85 221 47 2 92 305 338 88 210 151 168 181 158 129 69 51 111 125 112 100 82 86 103 94 86 74 68 58 44 45 8 359 44 68 58 50 3 342 336 274 223 304 307 281 267 261 262 254 244
8 21 15 70 119 166 22 282 178 64 56 36 80 97 158 62 21 86 75 83 89 58 55 75 68 66 45 31 18 14 355 25 45 42 30 18 356 328 325 1 326 297 279 279 277 274 265 260 283
349 68 78 109 295 63 137 275 82 91 62 32 79 79 70 111 46 83 71 61 51 34 58 77 65 65 39 9 10 358 351 63 55 40 48 21 341 323 320 326 301 300 285 281 281 288 347 62 31